[[{"header":{"parameterUnit":"m.s-1","parameterCategory":1,"la1":30.2991,"la2":30.254,"lo1":-89.0895,"lo2":-89.0444,"dy":0.0017,"dx":0.0017,"nx":28,"ny":28,"refTime":"2025-04-27T09:00:00:Z","depth":0,"parameterNumber":2,"parameterNumberName":"U-component_of_WINDS"},"data":[0,0,0,0,0,0,0,0,0,0,0,0,0,0,0,0,0,0,0,0,0,0,0,0,0,0,0,0,0,0,0,0,0,0,0,0,0,0,0,0,0,0,0,0,0,0,0,0,0,0,0,0,0,0,0,0,0,0,-1.2678,-1.2677,0,-1.2548,-1.2546,-1.2545,-1.2456,-1.2456,-1.2455,-1.2455,-1.2319,-1.2316,-1.2313,0,0,0,0,0,0,0,0,0,0,0,0,0,-1.2851,-1.2848,-1.2678,-1.2677,-1.2675,-1.2548,-1.2546,-1.2545,-1.2457,-1.2456,-1.2455,-1.2454,-1.232,-1.2317,-1.2313,0,0,0,0,0,0,0,0,0,0,0,0,0,-1.2754,-1.2847,-1.2679,-1.2616,-1.2609,-1.2548,-1.2546,-1.2544,-1.2457,-1.2456,-1.2455,-1.2454,-1.2321,-1.2317,-1.2312,-1.2303,0,0,-1.2299,-1.2297,0,0,0,0,0,0,0,0,-1.2759,-1.2747,-1.2627,-1.262,-1.2612,-1.2518,-1.2557,-1.2463,-1.2457,-1.2515,-1.2455,-1.2454,-1.2386,-1.2376,-1.2353,-1.2297,-1.2291,-1.2298,-1.2295,-1.2294,-1.2292,0,0,0,0,0,0,0,-1.2766,-1.2753,-1.2627,-1.2625,-1.2616,-1.2594,-1.2579,-1.2539,-1.2457,-1.2509,-1.2503,-1.2489,-1.2382,-1.2358,-1.235,-1.2289,-1.2298,-1.2294,-1.2292,-1.229,-1.222,-1.2221,0,0,0,0,0,0,-1.2783,-1.2759,-1.2631,-1.2623,-1.2685,-1.2592,-1.2575,-1.2549,-1.2457,-1.2442,-1.249,-1.2485,-1.2366,-1.2355,-1.2345,-1.2329,-1.2294,-1.2289,-1.2287,-1.222,-1.2221,-1.2222,0,0,0,0,0,0,-1.2787,-1.2772,-1.2636,-1.2689,-1.267,-1.259,-1.2561,-1.2547,-1.2523,-1.2442,-1.2427,-1.2481,-1.2365,-1.2351,-1.2315,-1.2323,-1.2287,-1.2283,-1.2219,-1.222,-1.2221,-1.2297,0,0,0,0,0,0,-1.2792,-1.2774,-1.277,-1.2689,-1.2667,-1.2609,-1.2561,-1.2545,-1.2516,-1.2509,-1.243,-1.2416,-1.2363,-1.2322,-1.231,-1.2316,-1.228,-1.2217,-1.2219,-1.2221,-1.2293,-1.2301,-1.2307,0,0,0,0,0,-1.2799,-1.2796,-1.277,-1.2755,-1.266,-1.2609,-1.2597,-1.2537,-1.2517,-1.2512,-1.246,-1.2418,-1.2324,-1.2319,-1.2305,-1.2309,-1.2217,-1.2219,-1.2221,-1.229,-1.2299,-1.2307,0,0,0,0,0,0,-1.2878,-1.2784,-1.2754,-1.2725,-1.2676,-1.2595,-1.2586,-1.2548,-1.2503,-1.2498,-1.2425,-1.2408,-1.238,-1.2341,-1.2337,-1.2297,-1.2265,-1.2265,-1.2323,-1.2331,-1.2338,-1.2347,-1.2276,0,0,0,0,0,-1.2892,-1.2859,-1.2778,-1.2761,-1.2738,-1.2667,-1.2642,-1.2601,-1.2546,-1.2525,-1.247,-1.2419,-1.2378,-1.2352,-1.231,-1.2288,-1.2269,-1.2284,-1.2291,-1.2297,-1.2297,-1.2283,-1.2289,-1.2228,-1.2228,-1.2228,0,0,-1.2921,-1.2865,-1.2849,-1.2775,-1.2732,-1.27,-1.2649,-1.2616,-1.2592,-1.2519,-1.2482,-1.2441,-1.2379,-1.2351,-1.2335,-1.2317,-1.231,-1.2299,-1.2305,-1.2301,-1.2286,-1.2292,-1.2297,-1.2229,-1.2229,-1.2229,0,0,-1.2957,-1.2911,-1.2892,-1.285,-1.2786,-1.274,-1.2736,-1.266,-1.263,-1.2592,-1.2538,-1.2507,-1.2437,-1.2396,-1.2366,-1.2389,-1.2349,-1.2377,-1.2412,-1.24,-1.2405,-1.2409,-1.2418,-1.2422,-1.2377,-1.2378,-1.2378,0,-1.3,-1.2949,-1.2887,-1.2857,-1.2827,-1.2762,-1.2742,-1.2705,-1.263,-1.2611,-1.2592,-1.2505,-1.2458,-1.242,-1.2426,-1.2403,-1.2396,-1.2385,-1.2409,-1.2413,-1.2415,-1.2423,-1.2426,-1.2381,-1.2381,-1.2381,-1.238,0,-1.3006,-1.2972,-1.2964,-1.2895,-1.2864,-1.2839,-1.2774,-1.275,-1.2712,-1.2667,-1.263,-1.2572,-1.2518,-1.2506,-1.2468,-1.2462,-1.2453,-1.2423,-1.239,-1.2426,-1.2432,-1.2434,-1.2387,-1.2386,-1.2384,-1.2384,0,0,-1.3086,-1.2985,-1.2983,-1.2952,-1.2878,-1.285,-1.2823,-1.2771,-1.2752,-1.2703,-1.268,-1.2624,-1.2596,-1.2562,-1.2518,-1.2508,-1.2531,-1.2479,-1.2476,-1.2491,-1.2523,-1.2546,-1.2551,-1.2505,-1.2505,-1.2505,-1.2528,0,-1.3111,-1.306,-1.3004,-1.2973,-1.2941,-1.288,-1.2857,-1.2809,-1.2767,-1.2734,-1.2687,-1.2649,-1.2615,-1.2594,-1.2581,-1.2531,-1.2537,-1.2529,-1.2482,-1.2481,-1.2499,-1.2553,-1.2577,-1.2602,-1.253,-1.253,-1.2531,0,-1.3132,-1.3088,-1.3054,-1.2985,-1.2969,-1.295,-1.2898,-1.2867,-1.2812,-1.2783,-1.2746,-1.2701,-1.267,-1.2642,-1.2599,-1.2595,-1.2573,-1.2546,-1.2545,-1.2538,-1.2508,-1.2548,-1.2608,-1.2612,-1.2534,-1.2533,-1.2533,0,-1.3195,-1.3127,-1.3098,-1.3073,-1.2991,-1.2979,-1.2944,-1.2889,-1.2861,-1.2817,-1.2798,-1.275,-1.2724,-1.2688,-1.2631,-1.2616,-1.2595,-1.2561,-1.257,-1.2571,-1.2567,-1.2568,-1.2625,-1.2553,-1.2553,-1.2553,-1.2553,0,-1.3229,-1.321,-1.3126,-1.3108,-1.3086,-1.3023,-1.3003,-1.2962,-1.2914,-1.2887,-1.2831,-1.2808,-1.2734,-1.2702,-1.2657,-1.2629,-1.2618,-1.2593,-1.2581,-1.2598,-1.2601,-1.2582,-1.2579,-1.2554,-1.2554,-1.2554,-1.2554,0,-1.3295,-1.3237,-1.3202,-1.3128,-1.3109,-1.3097,-1.3033,-1.3014,-1.297,-1.2937,-1.2926,-1.2856,-1.2816,-1.2756,-1.2697,-1.2667,-1.2646,-1.2627,-1.2665,-1.2658,-1.267,-1.267,-1.2716,-1.2719,-1.2646,-1.2647,-1.2648,0,-1.332,-1.3305,-1.323,-1.3209,-1.3176,-1.3142,-1.3115,-1.3052,-1.3026,-1.2964,-1.2952,-1.2908,-1.2868,-1.2807,-1.2751,-1.2706,-1.2685,-1.2705,-1.2678,-1.2696,-1.2686,-1.2688,-1.2687,-1.2711,-1.2712,-1.2713,-1.2714,0,-1.3371,-1.3344,-1.3306,-1.326,-1.3229,-1.3189,-1.3147,-1.3133,-1.3061,-1.3034,-1.2993,-1.2963,-1.2904,-1.286,-1.2808,-1.2772,-1.2731,-1.2723,-1.2722,-1.2739,-1.2762,-1.2751,-1.2682,-1.2722,-1.2721,-1.272,-1.272,-1.272,-1.3417,-1.3401,-1.3347,-1.3308,-1.327,-1.3232,-1.3211,-1.3165,-1.3129,-1.3077,-1.3042,-1.3003,-1.295,-1.2876,-1.2842,-1.281,-1.2793,-1.2792,-1.2792,-1.2793,-1.2799,-1.2768,-1.2801,-1.28,-1.28,-1.28,-1.2799,0,-1.3466,-1.3428,-1.3393,-1.3336,-1.3306,-1.3271,-1.3223,-1.32,-1.3166,-1.312,-1.3084,-1.3037,-1.2995,-1.2937,-1.2891,-1.2877,-1.2858,-1.2867,-1.2868,-1.286,-1.2817,-1.2822,-1.2884,-1.2884,-1.2884,-1.2884,-1.2884,-1.2884,-1.3487,-1.3459,-1.3426,-1.3379,-1.3341,-1.3303,-1.3279,-1.3244,-1.3207,-1.3158,-1.3123,-1.3086,-1.3035,-1.2986,-1.2946,-1.293,-1.2916,-1.2932,-1.2911,-1.2871,-1.2863,-1.2856,-1.286,-1.2929,-1.293,-1.2956,-1.2957,-1.2957]},{"header":{"parameterUnit":"m.s-1","parameterCategory":1,"la1":30.2991,"la2":30.254,"lo1":-89.0895,"lo2":-89.0444,"dy":0.0017,"dx":0.0017,"nx":28,"ny":28,"refTime":"2025-04-27T09:00:00:Z","depth":0,"parameterNumber":3,"parameterNumberName":"V-component_of_WINDS"},"data":[0,0,0,0,0,0,0,0,0,0,0,0,0,0,0,0,0,0,0,0,0,0,0,0,0,0,0,0,0,0,0,0,0,0,0,0,0,0,0,0,0,0,0,0,0,0,0,0,0,0,0,0,0,0,0,0,0,0,3.0639,3.0639,0,3.0631,3.0631,3.0631,3.0677,3.0679,3.068,3.0681,3.0667,3.0666,3.0664,0,0,0,0,0,0,0,0,0,0,0,0,0,3.0691,3.069,3.0639,3.0639,3.0639,3.0631,3.0631,3.0631,3.0677,3.0679,3.068,3.0682,3.0668,3.0666,3.0664,0,0,0,0,0,0,0,0,0,0,0,0,0,3.0674,3.0689,3.0639,3.0661,3.0663,3.0631,3.0631,3.0631,3.0677,3.0679,3.0681,3.0683,3.0669,3.0666,3.0664,3.0608,0,0,3.0656,3.0655,0,0,0,0,0,0,0,0,3.0675,3.0672,3.0658,3.066,3.0662,3.0657,3.0644,3.0623,3.0676,3.0671,3.0681,3.0684,3.0662,3.066,3.0654,3.0608,3.0607,3.0656,3.0655,3.0654,3.0653,0,0,0,0,0,0,0,3.0676,3.0672,3.0636,3.0658,3.066,3.067,3.067,3.064,3.0655,3.0672,3.0675,3.0674,3.0663,3.0656,3.0654,3.0607,3.0656,3.0654,3.0653,3.0652,3.0515,3.0513,0,0,0,0,0,0,3.0675,3.0673,3.0636,3.0635,3.0674,3.0668,3.0668,3.0657,3.0656,3.0658,3.0672,3.0676,3.066,3.0657,3.0654,3.0589,3.0654,3.0651,3.065,3.0517,3.0515,3.0512,0,0,0,0,0,0,3.0676,3.0671,3.0636,3.0655,3.0652,3.0665,3.0652,3.0655,3.0649,3.0656,3.0659,3.0663,3.0661,3.0657,3.062,3.0589,3.065,3.0648,3.052,3.0516,3.0513,3.0459,0,0,0,0,0,0,3.0677,3.0671,3.0651,3.0655,3.0651,3.0603,3.065,3.0654,3.0645,3.065,3.0648,3.0649,3.0662,3.0623,3.0617,3.0587,3.0646,3.0522,3.0518,3.0514,3.0464,3.0454,3.0447,0,0,0,0,0,3.0679,3.0634,3.065,3.0645,3.0626,3.0602,3.0599,3.0617,3.0642,3.0621,3.0627,3.0649,3.0594,3.0619,3.0613,3.0581,3.0524,3.0519,3.0515,3.0468,3.0456,3.0447,0,0,0,0,0,0,3.0624,3.0635,3.0652,3.0608,3.0604,3.061,3.0584,3.0604,3.0591,3.0596,3.0617,3.0616,3.0575,3.0574,3.0602,3.0528,3.0563,3.0557,3.053,3.0519,3.0511,3.0511,3.0644,0,0,0,0,0,3.0608,3.0589,3.0599,3.0559,3.0556,3.057,3.056,3.0575,3.057,3.0568,3.057,3.0564,3.0545,3.0532,3.0515,3.0464,3.0464,3.044,3.0431,3.0424,3.0418,3.0392,3.0381,3.0496,3.0496,3.0496,0,0,3.0572,3.0576,3.0562,3.0548,3.0546,3.0525,3.0568,3.0543,3.0528,3.0564,3.0529,3.0531,3.0525,3.0481,3.0461,3.0479,3.0386,3.0418,3.0412,3.041,3.0385,3.0374,3.0365,3.0493,3.0494,3.0494,0,0,3.0497,3.0498,3.0466,3.0464,3.0462,3.0472,3.0464,3.0467,3.047,3.0436,3.0463,3.0444,3.0411,3.0406,3.0399,3.0324,3.0344,3.0317,3.0272,3.0246,3.0237,3.0229,3.0202,3.0193,3.0312,3.0311,3.0311,0,3.0453,3.0423,3.0446,3.042,3.0413,3.0447,3.0414,3.041,3.0401,3.0395,3.0416,3.0377,3.0375,3.033,3.0312,3.0306,3.0297,3.0317,3.0237,3.0229,3.0222,3.0197,3.0187,3.0308,3.0309,3.0309,3.0309,0,3.0369,3.0348,3.0322,3.0316,3.0305,3.0276,3.0293,3.028,3.0295,3.0303,3.0268,3.0267,3.0252,3.0242,3.0256,3.02,3.0211,3.0234,3.027,3.0208,3.0184,3.0175,3.0304,3.0305,3.0306,3.0307,0,0,3.0258,3.0266,3.0256,3.0254,3.0255,3.0238,3.021,3.0197,3.0185,3.0179,3.0155,3.0128,3.015,3.0142,3.0155,3.0133,3.0074,3.0159,3.0159,3.0143,3.0012,2.9994,2.9983,3.0088,3.0086,3.0084,3.0012,0,3.0184,3.0139,3.0159,3.011,3.0091,3.0124,3.01,3.0097,3.0104,3.0088,3.0094,3.0075,3.0105,3.0101,3.008,3.0085,3.0047,3.0091,3.0065,3.0064,3.0065,2.997,2.9951,2.9883,3.0003,3.0002,3.0001,0,3.0092,3.0085,3.0035,3.0041,3.0033,3.0011,3.0001,2.9986,2.9983,2.999,2.9982,3.0001,2.9973,3.001,2.9971,3.0,2.9991,2.9992,2.999,2.9987,3.0028,2.9965,2.9862,2.9851,2.9986,2.9987,2.9988,0,3.0016,2.9993,2.9961,2.9958,2.9964,2.9948,2.9949,2.9949,2.994,2.9931,2.9925,2.9912,2.9904,2.9893,2.9908,2.9933,2.9867,2.9905,2.987,2.987,2.9854,2.9855,2.9748,2.9849,2.9849,2.9849,2.9849,0,2.9932,2.99,2.9927,2.9907,2.9873,2.9896,2.986,2.9865,2.9865,2.9846,2.9873,2.9854,2.9875,2.9857,2.9869,2.9835,2.9831,2.9835,2.9838,2.9832,2.9832,2.9826,2.9831,2.9846,2.9847,2.9848,2.9848,0,2.9841,2.9858,2.9825,2.9834,2.9836,2.981,2.9817,2.9798,2.9808,2.9783,2.9778,2.9792,2.9773,2.9788,2.9768,2.9776,2.9731,2.9741,2.9733,2.9735,2.9701,2.9704,2.9585,2.9571,2.9682,2.968,2.968,0,2.9786,2.9763,2.977,2.9761,2.9761,2.9744,2.9736,2.9758,2.9748,2.9744,2.9726,2.971,2.9698,2.9666,2.9674,2.9659,2.9669,2.9629,2.9667,2.9662,2.9668,2.9669,2.9667,2.9621,2.9619,2.9618,2.9617,0,2.9687,2.9697,2.9685,2.9676,2.9666,2.966,2.9655,2.9645,2.9667,2.9655,2.9637,2.9628,2.961,2.9594,2.9582,2.9582,2.9603,2.9606,2.9597,2.959,2.9586,2.9588,2.9711,2.9608,2.9609,2.961,2.961,2.961,2.9612,2.9593,2.9596,2.9582,2.9582,2.9577,2.9561,2.9569,2.9555,2.9544,2.9557,2.9535,2.9534,2.9522,2.9519,2.9502,2.9518,2.9506,2.9502,2.9499,2.9494,2.959,2.95,2.95,2.95,2.95,2.9501,0,2.9514,2.9518,2.9505,2.9499,2.9488,2.9512,2.9508,2.9497,2.9478,2.9476,2.9465,2.9445,2.943,2.9437,2.9423,2.9408,2.9417,2.9403,2.9404,2.9404,2.948,2.9489,2.9396,2.9396,2.9396,2.9396,2.9396,2.9396,2.9462,2.9432,2.9442,2.9412,2.9416,2.9397,2.9393,2.9389,2.9388,2.9365,2.9353,2.9358,2.936,2.9347,2.9334,2.9336,2.9329,2.9312,2.9318,2.9388,2.9399,2.9408,2.9417,2.9311,2.9311,2.9244,2.9243,2.9243]}]]